Change the Weather History Date:

Friday, July 12, 2013

  Actual Average Record
Temperature  
Mean Temperature 60 °F -  
Max Temperature 69 °F 61 °F 82 °F (1993)
Min Temperature 51 °F 49 °F 43 °F (2006)
Degree Days  
Heating Degree Days 5    
Growing Degree Days 10 (Base 50)    
Moisture  
Dew Point 51 °F    
Average Humidity 73    
Maximum Humidity 89    
Minimum Humidity 54    
Precipitation  
Precipitation 0.00 in - - ()
Sea Level Pressure  
Sea Level Pressure 29.96 in    
Wind  
Wind Speed 5 mph (South)    
Max Wind Speed 17 mph    
Max Gust Speed 23 mph    
Visibility 10 miles    
Events      
Averages and records for this station are not official NWS values.
T = Trace of Precipitation, MM = Missing Value Source: NWS Daily Summary

Daily Weather History Graph

Daily Weather History Graph

Search for Another Location

Airport or City:

Trip Planner

Search our weather history database for the weather conditions in past years. The results will help you decide how hot, cold, wet, or windy it might be!

Date:

Astronomy

Jul. 12, 2013 Rise Set
Actual Time 4:55 AM AKDT 11:10 PM AKDT
Civil Twilight 3:31 AM AKDT 12:32 AM AKDT
Nautical Twilight Sun does not rise Sun does not rise
Astronomical Twilight Sun does not rise Sun does not rise
Moon 10:53 AM AKDT (7/12) 11:46 PM AKDT (7/12)
Length of Visible Light 21h 00m
Length of Day
18h 14m
Waxing Crescent, 18% of the Moon is Illuminated
Jul 12
Waxing Crescent
Jul 15
First Quarter
Jul 22
Full
Jul 29
Last Quarter
Aug 6
New

Hourly Weather History & Observations

Time (AKDT) Temp. Dew Point Humidity Pressure Visibility Wind Dir Wind Speed Gust Speed Precip Events Conditions
12:53 AM 52.0 °F 48.9 °F 89% 29.95 in 10.0 mi Calm Calm - N/A   Clear
1:53 AM 51.1 °F 48.0 °F 89% 29.96 in 10.0 mi North 3.5 mph - N/A   Clear
2:53 AM 52.0 °F 46.9 °F 83% 29.96 in 10.0 mi NNW 4.6 mph - N/A   Clear
3:53 AM 53.1 °F 46.9 °F 80% 29.96 in 10.0 mi NNW 4.6 mph - N/A   Clear
4:53 AM 52.0 °F 46.9 °F 83% 29.96 in 10.0 mi NNW 6.9 mph - N/A   Clear
5:53 AM 53.1 °F 46.0 °F 77% 29.95 in 10.0 mi NNW 8.1 mph - N/A   Clear
6:53 AM 55.9 °F 46.9 °F 72% 29.95 in 10.0 mi North 10.4 mph - N/A   Clear
7:53 AM 59.0 °F 48.9 °F 69% 29.95 in 10.0 mi NNW 5.8 mph - N/A   Clear
8:53 AM 62.1 °F 50.0 °F 65% 29.95 in 10.0 mi NNW 5.8 mph - N/A   Clear
9:53 AM 64.0 °F 53.1 °F 67% 29.95 in 10.0 mi Calm Calm - N/A   Clear
10:53 AM 62.1 °F 52.0 °F 70% 29.95 in 10.0 mi South 6.9 mph - N/A   Clear
11:53 AM 64.9 °F 54.0 °F 68% 29.95 in 10.0 mi South 5.8 mph - N/A   Clear
12:53 PM 66.0 °F 55.0 °F 68% 29.95 in 10.0 mi South 6.9 mph - N/A   Clear
1:53 PM 66.9 °F 53.1 °F 61% 29.95 in 10.0 mi SE 10.4 mph - N/A   Clear
2:53 PM 69.1 °F 52.0 °F 54% 29.95 in 10.0 mi SSE 8.1 mph 16.1 mph N/A   Clear
3:53 PM 68.0 °F 52.0 °F 56% 29.94 in 10.0 mi South 17.3 mph 23.0 mph N/A   Clear
4:53 PM 66.9 °F 54.0 °F 63% 29.94 in 10.0 mi Variable 6.9 mph - N/A   Clear
5:53 PM 66.0 °F 54.0 °F 65% 29.95 in 10.0 mi South 13.8 mph - N/A   Clear
6:53 PM 66.9 °F 52.0 °F 59% 29.95 in 10.0 mi South 8.1 mph 18.4 mph N/A   Clear
7:53 PM 63.0 °F 55.0 °F 75% 29.96 in 10.0 mi SSE 5.8 mph - N/A   Clear
8:53 PM 60.1 °F 54.0 °F 80% 29.97 in 10.0 mi SE 8.1 mph - N/A   Clear
9:53 PM 59.0 °F 54.0 °F 83% 29.98 in 10.0 mi Variable 3.5 mph - N/A   Clear
10:53 PM 57.0 °F 54.0 °F 89% 29.99 in 10.0 mi South 3.5 mph - N/A   Overcast
11:53 PM 57.0 °F 54.0 °F 89% 30.01 in 10.0 mi Calm Calm - N/A   Overcast